Time,TemperatureF,DewpointF,PressureIn,WindDirection,WindDirectionDegrees,WindSpeedMPH,WindSpeedGustMPH,Humidity,HourlyPrecipIn,Conditions,Clouds,dailyrainin,SolarRadiationWatts/m^2,SoftwareType,DateUTC
2013-06-27 00:02:00,70.3,68.5,29.83,WSW,250,0.0,0.0,94,0.00,,,0.18,0.00,VWS V14.01,2013-06-27 04:02:00,
2013-06-27 00:07:00,70.3,68.5,29.83,WSW,250,0.0,0.0,94,0.00,,,0.00,0.00,VWS V14.01,2013-06-27 04:07:00,
2013-06-27 00:12:00,70.3,68.5,29.83,WSW,250,0.0,0.0,94,0.00,,,0.00,0.00,VWS V14.01,2013-06-27 04:12:00,
2013-06-27 00:17:00,70.3,68.5,29.83,WSW,250,0.0,0.0,94,0.00,,,0.00,0.00,VWS V14.01,2013-06-27 04:17:00,
2013-06-27 00:22:00,70.3,68.5,29.83,WSW,250,0.0,0.0,94,0.00,,,0.00,0.00,VWS V14.01,2013-06-27 04:22:00,
2013-06-27 00:27:00,70.3,68.5,29.83,WSW,250,0.0,0.0,94,0.00,,,0.00,0.00,VWS V14.01,2013-06-27 04:27:00,
2013-06-27 00:32:00,70.3,68.5,29.83,WSW,250,0.0,0.0,94,0.00,,,0.00,0.00,VWS V14.01,2013-06-27 04:32:00,
2013-06-27 00:37:00,70.3,68.5,29.83,WSW,250,0.0,0.0,94,0.00,,,0.00,0.00,VWS V14.01,2013-06-27 04:37:00,
2013-06-27 00:42:00,70.3,68.5,29.83,WSW,250,0.0,0.0,94,0.00,,,0.00,0.00,VWS V14.01,2013-06-27 04:42:00,
2013-06-27 00:47:00,70.3,68.5,29.82,WSW,250,0.0,0.0,94,0.00,,,0.00,0.00,VWS V14.01,2013-06-27 04:47:00,
2013-06-27 00:52:00,70.3,68.5,29.82,WSW,250,0.0,0.0,94,0.00,,,0.00,0.00,VWS V14.01,2013-06-27 04:52:00,
2013-06-27 00:57:00,70.1,68.3,29.82,WSW,250,0.0,0.0,94,0.00,,,0.00,0.00,VWS V14.01,2013-06-27 04:57:00,
2013-06-27 01:02:00,70.1,68.3,29.81,WSW,250,0.0,0.0,94,0.00,,,0.00,0.00,VWS V14.01,2013-06-27 05:02:00,
2013-06-27 01:07:00,69.9,68.1,29.81,WSW,250,0.0,0.0,94,0.00,,,0.00,0.00,VWS V14.01,2013-06-27 05:07:00,
2013-06-27 01:12:00,69.9,68.1,29.81,West,274,2.0,2.0,94,0.00,,,0.00,0.00,VWS V14.01,2013-06-27 05:12:00,
2013-06-27 01:17:00,69.9,68.1,29.82,West,274,0.0,0.0,94,0.00,,,0.00,0.00,VWS V14.01,2013-06-27 05:17:00,
2013-06-27 01:22:00,69.9,68.1,29.82,West,274,4.0,4.0,94,0.00,,,0.00,0.00,VWS V14.01,2013-06-27 05:22:00,
2013-06-27 01:27:00,69.8,68.0,29.82,West,274,6.0,6.0,94,0.00,,,0.00,0.00,VWS V14.01,2013-06-27 05:27:00,
2013-06-27 01:32:00,69.8,68.0,29.83,WSW,250,5.0,7.0,94,0.00,,,0.00,0.00,VWS V14.01,2013-06-27 05:32:00,
2013-06-27 01:37:00,69.8,68.0,29.83,SW,233,4.0,6.0,94,0.00,,,0.00,0.00,VWS V14.01,2013-06-27 05:37:00,
2013-06-27 01:42:00,69.8,68.0,29.83,WSW,254,2.0,2.0,94,0.00,,,0.00,0.00,VWS V14.01,2013-06-27 05:42:00,
2013-06-27 01:47:00,69.6,67.8,29.82,WSW,256,0.0,0.0,94,0.00,,,0.00,0.00,VWS V14.01,2013-06-27 05:47:00,
2013-06-27 01:52:00,69.6,67.8,29.82,West,259,4.0,5.0,94,0.00,,,0.00,0.00,VWS V14.01,2013-06-27 05:52:00,
2013-06-27 01:57:00,69.6,67.8,29.82,WSW,248,0.0,0.0,94,0.00,,,0.00,0.00,VWS V14.01,2013-06-27 05:57:00,
2013-06-27 02:02:00,69.4,67.6,29.81,WSW,248,0.0,0.0,94,0.00,,,0.00,0.00,VWS V14.01,2013-06-27 06:02:00,
2013-06-27 02:07:00,69.4,67.6,29.81,WSW,248,0.0,0.0,94,0.00,,,0.00,0.00,VWS V14.01,2013-06-27 06:07:00,
2013-06-27 02:12:00,69.4,67.3,29.81,WSW,248,0.0,0.0,93,0.00,,,0.00,0.00,VWS V14.01,2013-06-27 06:12:00,
2013-06-27 02:17:00,69.3,67.2,29.81,WSW,248,0.0,0.0,93,0.00,,,0.00,0.00,VWS V14.01,2013-06-27 06:17:00,
2013-06-27 02:22:00,69.3,67.2,29.81,WSW,248,0.0,0.0,93,0.00,,,0.00,0.00,VWS V14.01,2013-06-27 06:22:00,
2013-06-27 02:27:00,69.3,67.2,29.81,WSW,248,0.0,0.0,93,0.00,,,0.00,0.00,VWS V14.01,2013-06-27 06:27:00,
2013-06-27 02:32:00,69.3,67.2,29.81,WSW,248,0.0,0.0,93,0.00,,,0.00,0.00,VWS V14.01,2013-06-27 06:32:00,
2013-06-27 02:37:00,69.1,67.0,29.81,WSW,248,0.0,0.0,93,0.00,,,0.00,0.00,VWS V14.01,2013-06-27 06:37:00,
2013-06-27 02:42:00,69.1,67.0,29.81,WSW,248,0.0,0.0,93,0.00,,,0.00,0.00,VWS V14.01,2013-06-27 06:42:00,
2013-06-27 02:47:00,69.1,67.0,29.81,WSW,248,0.0,0.0,93,0.00,,,0.00,0.00,VWS V14.01,2013-06-27 06:47:00,
2013-06-27 02:52:00,69.1,67.0,29.81,WSW,237,1.0,2.0,93,0.00,,,0.00,0.00,VWS V14.01,2013-06-27 06:52:00,
2013-06-27 02:57:00,69.1,67.0,29.81,SW,235,0.0,0.0,93,0.00,,,0.00,0.00,VWS V14.01,2013-06-27 06:57:00,
2013-06-27 03:02:00,69.1,67.0,29.81,SW,235,0.0,0.0,93,0.00,,,0.00,0.00,VWS V14.01,2013-06-27 07:02:00,
2013-06-27 03:07:00,69.1,67.0,29.81,SW,235,0.0,0.0,93,0.00,,,0.00,0.00,VWS V14.01,2013-06-27 07:07:00,
2013-06-27 03:12:00,68.9,66.8,29.81,SW,235,0.0,2.0,93,0.00,,,0.00,0.00,VWS V14.01,2013-06-27 07:12:00,
2013-06-27 03:17:00,68.9,66.8,29.81,SW,235,0.0,0.0,93,0.00,,,0.00,0.00,VWS V14.01,2013-06-27 07:17:00,
2013-06-27 03:22:00,68.9,66.8,29.81,SW,235,1.0,1.0,93,0.00,,,0.00,0.00,VWS V14.01,2013-06-27 07:22:00,
2013-06-27 03:27:00,68.9,66.8,29.81,SW,235,0.0,0.0,93,0.00,,,0.00,0.00,VWS V14.01,2013-06-27 07:27:00,
2013-06-27 03:32:00,68.9,66.8,29.81,SW,235,0.0,0.0,93,0.00,,,0.00,0.00,VWS V14.01,2013-06-27 07:32:00,
2013-06-27 03:37:00,68.9,66.8,29.81,SW,235,0.0,0.0,93,0.00,,,0.00,0.00,VWS V14.01,2013-06-27 07:37:00,
2013-06-27 03:42:00,68.9,66.8,29.81,SW,235,0.0,0.0,93,0.00,,,0.00,0.00,VWS V14.01,2013-06-27 07:42:00,
2013-06-27 03:47:00,68.9,66.8,29.80,SW,235,0.0,0.0,93,0.00,,,0.00,0.00,VWS V14.01,2013-06-27 07:47:00,
2013-06-27 03:52:00,68.9,66.8,29.80,SW,235,0.0,0.0,93,0.00,,,0.00,0.00,VWS V14.01,2013-06-27 07:52:00,
2013-06-27 03:57:00,68.9,66.8,29.80,SW,234,0.0,3.0,93,0.00,,,0.00,0.00,VWS V14.01,2013-06-27 07:57:00,
2013-06-27 04:02:00,68.9,66.8,29.80,SW,234,0.0,0.0,93,0.00,,,0.00,0.00,VWS V14.01,2013-06-27 08:02:00,
2013-06-27 04:07:00,68.9,66.8,29.80,SW,234,0.0,3.0,93,0.00,,,0.00,0.00,VWS V14.01,2013-06-27 08:07:00,
2013-06-27 04:12:00,68.9,66.8,29.80,SW,234,0.0,1.0,93,0.00,,,0.00,0.00,VWS V14.01,2013-06-27 08:12:00,
2013-06-27 04:17:00,68.9,66.8,29.80,SW,234,0.0,0.0,93,0.00,,,0.00,0.00,VWS V14.01,2013-06-27 08:17:00,
2013-06-27 04:22:00,68.9,66.8,29.80,SW,234,1.0,1.0,93,0.00,,,0.00,0.00,VWS V14.01,2013-06-27 08:22:00,
2013-06-27 04:27:00,69.1,67.0,29.80,SW,234,0.0,0.0,93,0.00,,,0.00,0.00,VWS V14.01,2013-06-27 08:27:00,
2013-06-27 04:32:00,69.1,67.0,29.79,SW,234,3.0,3.0,93,0.00,,,0.00,0.00,VWS V14.01,2013-06-27 08:32:00,
2013-06-27 04:37:00,69.3,67.2,29.79,SSW,198,3.0,4.0,93,0.00,,,0.00,0.00,VWS V14.01,2013-06-27 08:37:00,
2013-06-27 04:42:00,69.3,67.2,29.79,SSW,200,4.0,4.0,93,0.00,,,0.00,0.00,VWS V14.01,2013-06-27 08:42:00,
2013-06-27 04:47:00,69.4,67.3,29.79,SSW,207,1.0,1.0,93,0.00,,,0.00,0.00,VWS V14.01,2013-06-27 08:47:00,
2013-06-27 04:52:00,69.4,67.3,29.79,SSW,207,0.0,0.0,93,0.00,,,0.00,0.00,VWS V14.01,2013-06-27 08:52:00,
2013-06-27 04:57:00,69.4,67.3,29.79,SSW,207,0.0,0.0,93,0.00,,,0.00,0.00,VWS V14.01,2013-06-27 08:57:00,
2013-06-27 05:02:00,69.6,67.5,29.79,SSW,207,0.0,2.0,93,0.00,,,0.00,0.00,VWS V14.01,2013-06-27 09:02:00,
2013-06-27 05:07:00,69.6,67.5,29.79,SSW,207,0.0,4.0,93,0.00,,,0.00,0.00,VWS V14.01,2013-06-27 09:07:00,
2013-06-27 05:12:00,69.6,67.5,29.79,SSW,207,0.0,1.0,93,0.00,,,0.00,0.00,VWS V14.01,2013-06-27 09:12:00,
2013-06-27 05:17:00,69.6,67.5,29.79,SSW,207,3.0,6.0,93,0.00,,,0.00,0.00,VWS V14.01,2013-06-27 09:17:00,
2013-06-27 05:22:00,69.6,67.5,29.79,SSW,207,0.0,3.0,93,0.00,,,0.00,0.00,VWS V14.01,2013-06-27 09:22:00,
2013-06-27 05:27:00,69.6,67.5,29.79,South,181,2.0,4.0,93,0.00,,,0.00,0.00,VWS V14.01,2013-06-27 09:27:00,
2013-06-27 05:32:00,69.6,67.5,29.78,South,182,1.0,4.0,93,0.00,,,0.00,0.00,VWS V14.01,2013-06-27 09:32:00,
2013-06-27 05:37:00,69.6,67.5,29.78,South,188,3.0,3.0,93,0.00,,,0.00,0.00,VWS V14.01,2013-06-27 09:37:00,
2013-06-27 05:42:00,69.6,67.5,29.78,South,172,3.0,3.0,93,0.00,,,0.00,0.00,VWS V14.01,2013-06-27 09:42:00,
2013-06-27 05:47:00,69.6,67.5,29.77,SSW,200,5.0,6.0,93,0.00,,,0.00,0.00,VWS V14.01,2013-06-27 09:47:00,
2013-06-27 05:52:00,69.6,67.5,29.77,SSW,204,0.0,4.0,93,0.00,,,0.00,0.00,VWS V14.01,2013-06-27 09:52:00,
2013-06-27 05:57:00,69.6,67.5,29.77,SSW,203,4.0,4.0,93,0.00,,,0.00,0.00,VWS V14.01,2013-06-27 09:57:00,
2013-06-27 06:02:00,69.6,67.5,29.77,SSW,195,4.0,6.0,93,0.00,,,0.00,0.00,VWS V14.01,2013-06-27 10:02:00,
2013-06-27 06:07:00,69.6,67.5,29.77,SSW,195,0.0,0.0,93,0.00,,,0.00,7.00,VWS V14.01,2013-06-27 10:07:00,
2013-06-27 06:12:00,69.6,67.5,29.77,SSW,195,0.0,1.0,93,0.00,,,0.00,11.00,VWS V14.01,2013-06-27 10:12:00,
2013-06-27 06:17:00,69.6,67.5,29.77,SSW,195,0.0,0.0,93,0.00,,,0.00,14.00,VWS V14.01,2013-06-27 10:17:00,
2013-06-27 06:22:00,69.6,67.8,29.77,SSW,195,0.0,4.0,94,0.00,,,0.00,18.00,VWS V14.01,2013-06-27 10:22:00,
2013-06-27 06:27:00,69.8,68.0,29.77,SSW,207,3.0,6.0,94,0.00,,,0.00,21.00,VWS V14.01,2013-06-27 10:27:00,
2013-06-27 06:32:00,69.8,68.0,29.78,SSW,210,2.0,3.0,94,0.00,,,0.00,26.00,VWS V14.01,2013-06-27 10:32:00,
2013-06-27 06:37:00,69.9,68.1,29.78,SSW,210,0.0,0.0,94,0.00,,,0.00,30.00,VWS V14.01,2013-06-27 10:37:00,
2013-06-27 06:42:00,70.1,68.3,29.78,SSW,204,2.0,5.0,94,0.00,,,0.00,35.00,VWS V14.01,2013-06-27 10:42:00,
2013-06-27 06:47:00,70.3,68.5,29.78,WSW,243,0.0,5.0,94,0.00,,,0.00,39.00,VWS V14.01,2013-06-27 10:47:00,
2013-06-27 06:52:00,70.3,68.5,29.78,SSW,193,3.0,5.0,94,0.00,,,0.00,42.00,VWS V14.01,2013-06-27 10:52:00,
2013-06-27 06:57:00,70.4,68.6,29.78,SSW,198,0.0,4.0,94,0.00,,,0.00,46.00,VWS V14.01,2013-06-27 10:57:00,
2013-06-27 07:02:00,70.6,68.8,29.77,SSW,198,1.0,5.0,94,0.00,,,0.00,53.00,VWS V14.01,2013-06-27 11:02:00,
2013-06-27 07:07:00,70.8,69.0,29.77,SSW,200,6.0,7.0,94,0.00,,,0.00,77.00,VWS V14.01,2013-06-27 11:07:00,
2013-06-27 07:12:00,70.9,69.1,29.77,SW,224,5.0,6.0,94,0.00,,,0.00,74.00,VWS V14.01,2013-06-27 11:12:00,
2013-06-27 07:17:00,71.1,69.3,29.77,SW,228,4.0,6.0,94,0.00,,,0.00,90.00,VWS V14.01,2013-06-27 11:17:00,
2013-06-27 07:22:00,71.3,69.5,29.77,SW,230,1.0,3.0,94,0.00,,,0.00,70.00,VWS V14.01,2013-06-27 11:22:00,
2013-06-27 07:27:00,71.5,69.7,29.77,SW,230,2.0,4.0,94,0.00,,,0.00,79.00,VWS V14.01,2013-06-27 11:27:00,
2013-06-27 07:32:00,71.6,69.5,29.77,SW,214,4.0,6.0,93,0.00,,,0.00,100.00,VWS V14.01,2013-06-27 11:32:00,
2013-06-27 07:37:00,71.8,69.7,29.77,SSE,165,4.0,6.0,93,0.00,,,0.00,95.00,VWS V14.01,2013-06-27 11:37:00,
2013-06-27 07:42:00,72.1,70.0,29.77,SW,224,0.0,2.0,93,0.00,,,0.00,74.00,VWS V14.01,2013-06-27 11:42:00,
2013-06-27 07:47:00,72.3,70.2,29.78,SSW,213,7.0,7.0,93,0.00,,,0.00,98.00,VWS V14.01,2013-06-27 11:47:00,
2013-06-27 07:52:00,72.5,70.4,29.78,SSW,197,0.0,5.0,93,0.00,,,0.00,70.00,VWS V14.01,2013-06-27 11:52:00,
2013-06-27 07:57:00,72.7,70.6,29.78,South,186,0.0,1.0,93,0.00,,,0.00,88.00,VWS V14.01,2013-06-27 11:57:00,
2013-06-27 08:02:00,72.8,70.3,29.77,SSW,211,8.0,10.0,92,0.00,,,0.00,116.00,VWS V14.01,2013-06-27 12:02:00,
2013-06-27 08:07:00,72.8,70.3,29.77,SSW,196,3.0,6.0,92,0.00,,,0.00,107.00,VWS V14.01,2013-06-27 12:07:00,
2013-06-27 08:12:00,72.8,70.3,29.77,South,184,4.0,7.0,92,0.00,,,0.00,120.00,VWS V14.01,2013-06-27 12:12:00,
2013-06-27 08:17:00,73.0,70.5,29.77,SSW,203,6.0,10.0,92,0.00,,,0.00,192.00,VWS V14.01,2013-06-27 12:17:00,
2013-06-27 08:22:00,73.2,70.7,29.77,South,188,6.0,6.0,92,0.00,,,0.00,139.00,VWS V14.01,2013-06-27 12:22:00,
2013-06-27 08:27:00,73.3,70.8,29.77,SSW,213,5.0,11.0,92,0.00,,,0.00,155.00,VWS V14.01,2013-06-27 12:27:00,
2013-06-27 08:32:00,73.5,70.7,29.77,SSW,200,5.0,7.0,91,0.00,,,0.00,237.00,VWS V14.01,2013-06-27 12:32:00,
2013-06-27 08:37:00,73.7,70.9,29.77,SW,220,11.0,11.0,91,0.00,,,0.00,91.00,VWS V14.01,2013-06-27 12:37:00,
2013-06-27 08:42:00,73.9,71.1,29.77,West,274,5.0,7.0,91,0.00,,,0.00,355.00,VWS V14.01,2013-06-27 12:42:00,
2013-06-27 08:47:00,74.0,70.9,29.77,SSE,166,6.0,13.0,90,0.00,,,0.00,200.00,VWS V14.01,2013-06-27 12:47:00,
2013-06-27 08:52:00,74.4,71.3,29.77,South,176,4.0,10.0,90,0.00,,,0.00,229.00,VWS V14.01,2013-06-27 12:52:00,
2013-06-27 08:57:00,74.6,71.2,29.77,South,191,3.0,6.0,89,0.00,,,0.00,292.00,VWS V14.01,2013-06-27 12:57:00,
2013-06-27 09:02:00,74.9,71.4,29.75,SSW,205,7.0,8.0,89,0.00,,,0.00,151.00,VWS V14.01,2013-06-27 13:02:00,
2013-06-27 09:07:00,75.3,71.5,29.75,WSW,237,0.0,1.0,88,0.00,,,0.00,524.00,VWS V14.01,2013-06-27 13:07:00,
2013-06-27 09:12:00,76.0,71.9,29.75,SW,223,5.0,7.0,87,0.00,,,0.00,622.00,VWS V14.01,2013-06-27 13:12:00,
2013-06-27 09:17:00,76.5,71.7,29.75,WSW,252,6.0,9.0,85,0.00,,,0.00,186.00,VWS V14.01,2013-06-27 13:17:00,
2013-06-27 09:22:00,76.8,71.6,29.75,SSW,209,5.0,10.0,84,0.00,,,0.00,346.00,VWS V14.01,2013-06-27 13:22:00,
2013-06-27 09:27:00,77.0,71.4,29.75,WSW,248,13.0,13.0,83,0.00,,,0.00,178.00,VWS V14.01,2013-06-27 13:27:00,
2013-06-27 09:32:00,77.4,71.8,29.76,SW,236,2.0,5.0,83,0.00,,,0.00,427.00,VWS V14.01,2013-06-27 13:32:00,
2013-06-27 09:37:00,77.6,71.7,29.76,West,266,5.0,12.0,82,0.00,,,0.00,399.00,VWS V14.01,2013-06-27 13:37:00,
2013-06-27 09:42:00,77.7,71.8,29.76,WSW,257,9.0,13.0,82,0.00,,,0.00,148.00,VWS V14.01,2013-06-27 13:42:00,
2013-06-27 09:47:00,77.7,71.8,29.77,WSW,244,5.0,7.0,82,0.00,,,0.00,100.00,VWS V14.01,2013-06-27 13:47:00,
2013-06-27 09:52:00,77.7,72.1,29.77,West,266,7.0,7.0,83,0.00,,,0.00,86.00,VWS V14.01,2013-06-27 13:52:00,
2013-06-27 09:57:00,77.7,72.1,29.77,West,267,4.0,4.0,83,0.00,,,0.00,132.00,VWS V14.01,2013-06-27 13:57:00,
2013-06-27 10:02:00,77.7,72.1,29.77,West,277,5.0,7.0,83,0.00,,,0.00,209.00,VWS V14.01,2013-06-27 14:02:00,
2013-06-27 10:07:00,77.9,72.3,29.77,SW,231,4.0,13.0,83,0.00,,,0.00,218.00,VWS V14.01,2013-06-27 14:07:00,
2013-06-27 10:12:00,77.9,72.0,29.77,SSW,209,2.0,4.0,82,0.00,,,0.00,230.00,VWS V14.01,2013-06-27 14:12:00,
2013-06-27 10:17:00,78.1,72.2,29.75,SSW,213,5.0,9.0,82,0.00,,,0.00,320.00,VWS V14.01,2013-06-27 14:17:00,
2013-06-27 10:22:00,78.6,72.3,29.75,WSW,240,6.0,10.0,81,0.00,,,0.00,793.00,VWS V14.01,2013-06-27 14:22:00,
2013-06-27 10:27:00,79.2,72.5,29.75,WSW,241,0.0,5.0,80,0.00,,,0.00,745.00,VWS V14.01,2013-06-27 14:27:00,
2013-06-27 10:32:00,79.9,72.4,29.75,West,263,10.0,11.0,78,0.00,,,0.00,807.00,VWS V14.01,2013-06-27 14:32:00,
2013-06-27 10:37:00,80.3,72.1,29.75,SW,219,4.0,13.0,76,0.00,,,0.00,264.00,VWS V14.01,2013-06-27 14:37:00,
2013-06-27 10:42:00,80.5,72.2,29.75,WSW,246,10.0,10.0,76,0.00,,,0.00,432.00,VWS V14.01,2013-06-27 14:42:00,
2013-06-27 10:47:00,81.1,72.4,29.75,SSW,207,5.0,12.0,75,0.00,,,0.00,271.00,VWS V14.01,2013-06-27 14:47:00,
2013-06-27 10:52:00,81.4,72.3,29.75,SSW,204,11.0,11.0,74,0.00,,,0.00,304.00,VWS V14.01,2013-06-27 14:52:00,
2013-06-27 10:57:00,82.0,72.9,29.75,South,188,11.0,12.0,74,0.00,,,0.00,881.00,VWS V14.01,2013-06-27 14:57:00,
2013-06-27 11:02:00,82.6,72.7,29.74,West,265,11.0,11.0,72,0.00,,,0.00,881.00,VWS V14.01,2013-06-27 15:02:00,
2013-06-27 11:07:00,83.2,72.4,29.74,West,274,2.0,2.0,70,0.00,,,0.00,851.00,VWS V14.01,2013-06-27 15:07:00,
2013-06-27 11:12:00,83.8,72.6,29.74,West,272,5.0,9.0,69,0.00,,,0.00,817.00,VWS V14.01,2013-06-27 15:12:00,
2013-06-27 11:17:00,84.1,72.4,29.74,West,280,7.0,7.0,68,0.00,,,0.00,830.00,VWS V14.01,2013-06-27 15:17:00,
2013-06-27 11:22:00,84.3,71.7,29.74,West,266,1.0,11.0,66,0.00,,,0.00,840.00,VWS V14.01,2013-06-27 15:22:00,
2013-06-27 11:27:00,84.5,72.3,29.74,WSW,240,3.0,9.0,67,0.00,,,0.00,874.00,VWS V14.01,2013-06-27 15:27:00,
2013-06-27 11:32:00,84.7,72.1,29.75,SW,233,0.0,7.0,66,0.00,,,0.00,485.00,VWS V14.01,2013-06-27 15:32:00,
2013-06-27 11:37:00,84.7,72.1,29.75,West,265,5.0,7.0,66,0.00,,,0.00,288.00,VWS V14.01,2013-06-27 15:37:00,
2013-06-27 11:42:00,84.9,73.2,29.75,WNW,302,3.0,5.0,68,0.00,,,0.00,635.00,VWS V14.01,2013-06-27 15:42:00,
2013-06-27 11:47:00,85.1,72.5,29.75,WSW,252,6.0,6.0,66,0.00,,,0.00,635.00,VWS V14.01,2013-06-27 15:47:00,
2013-06-27 11:52:00,85.5,72.4,29.75,WSW,257,0.0,1.0,65,0.00,,,0.00,536.00,VWS V14.01,2013-06-27 15:52:00,
2013-06-27 11:57:00,85.9,72.3,29.75,WSW,248,2.0,7.0,64,0.00,,,0.00,668.00,VWS V14.01,2013-06-27 15:57:00,
2013-06-27 12:02:00,86.3,73.2,29.75,SW,222,0.0,1.0,65,0.00,,,0.00,615.00,VWS V14.01,2013-06-27 16:02:00,
2013-06-27 12:07:00,86.1,72.5,29.75,WNW,297,5.0,8.0,64,0.00,,,0.00,522.00,VWS V14.01,2013-06-27 16:07:00,
2013-06-27 12:12:00,85.9,72.3,29.75,SSW,196,3.0,3.0,64,0.00,,,0.00,506.00,VWS V14.01,2013-06-27 16:12:00,
2013-06-27 12:17:00,86.1,72.0,29.75,West,274,7.0,10.0,63,0.00,,,0.00,506.00,VWS V14.01,2013-06-27 16:17:00,
2013-06-27 12:22:00,86.5,72.4,29.75,WSW,250,6.0,7.0,63,0.00,,,0.00,722.00,VWS V14.01,2013-06-27 16:22:00,
2013-06-27 12:27:00,86.7,72.6,29.75,South,190,5.0,6.0,63,0.00,,,0.00,1060.00,VWS V14.01,2013-06-27 16:27:00,
2013-06-27 12:32:00,87.0,73.4,29.74,WNW,285,6.0,9.0,64,0.00,,,0.00,1079.00,VWS V14.01,2013-06-27 16:32:00,
2013-06-27 12:37:00,87.2,73.1,29.74,SW,223,0.0,4.0,63,0.00,,,0.00,531.00,VWS V14.01,2013-06-27 16:37:00,
2013-06-27 12:42:00,87.4,73.3,29.74,NW,318,10.0,10.0,63,0.00,,,0.00,575.00,VWS V14.01,2013-06-27 16:42:00,
2013-06-27 12:47:00,87.2,72.6,29.75,West,260,4.0,5.0,62,0.00,,,0.00,425.00,VWS V14.01,2013-06-27 16:47:00,
2013-06-27 12:52:00,86.7,71.7,29.75,SW,229,0.0,6.0,61,0.00,,,0.00,387.00,VWS V14.01,2013-06-27 16:52:00,
2013-06-27 12:57:00,86.1,71.6,29.75,WSW,255,2.0,9.0,62,0.00,,,0.00,466.00,VWS V14.01,2013-06-27 16:57:00,
2013-06-27 13:02:00,85.7,71.7,29.74,WSW,240,4.0,6.0,63,0.00,,,0.00,418.00,VWS V14.01,2013-06-27 17:02:00,
2013-06-27 13:07:00,85.7,72.1,29.74,West,278,4.0,6.0,64,0.00,,,0.00,589.00,VWS V14.01,2013-06-27 17:07:00,
2013-06-27 13:12:00,86.1,72.0,29.74,West,274,5.0,7.0,63,0.00,,,0.00,812.00,VWS V14.01,2013-06-27 17:12:00,
2013-06-27 13:17:00,86.5,72.4,29.74,West,271,5.0,8.0,63,0.00,,,0.00,454.00,VWS V14.01,2013-06-27 17:17:00,
2013-06-27 13:22:00,86.7,72.1,29.74,West,279,7.0,7.0,62,0.00,,,0.00,594.00,VWS V14.01,2013-06-27 17:22:00,
2013-06-27 13:27:00,87.0,72.9,29.74,SW,236,7.0,7.0,63,0.00,,,0.00,554.00,VWS V14.01,2013-06-27 17:27:00,
2013-06-27 13:32:00,87.2,72.6,29.73,WSW,258,8.0,10.0,62,0.00,,,0.00,656.00,VWS V14.01,2013-06-27 17:32:00,
2013-06-27 13:37:00,87.4,71.8,29.73,West,259,6.0,8.0,60,0.00,,,0.00,870.00,VWS V14.01,2013-06-27 17:37:00,
2013-06-27 13:42:00,87.6,71.0,29.73,West,269,1.0,4.0,58,0.00,,,0.00,1153.00,VWS V14.01,2013-06-27 17:42:00,
2013-06-27 13:47:00,88.0,71.9,29.73,SW,226,1.0,3.0,59,0.00,,,0.00,791.00,VWS V14.01,2013-06-27 17:47:00,
2013-06-27 13:52:00,88.4,72.3,29.73,West,280,6.0,7.0,59,0.00,,,0.00,1055.00,VWS V14.01,2013-06-27 17:52:00,
2013-06-27 13:57:00,88.4,71.8,29.73,SSE,167,6.0,6.0,58,0.00,,,0.00,1062.00,VWS V14.01,2013-06-27 17:57:00,
2013-06-27 14:02:00,88.6,71.9,29.72,South,179,4.0,5.0,58,0.00,,,0.00,1062.00,VWS V14.01,2013-06-27 18:02:00,
2013-06-27 14:07:00,88.8,71.6,29.72,South,185,11.0,12.0,57,0.00,,,0.00,1048.00,VWS V14.01,2013-06-27 18:07:00,
2013-06-27 14:12:00,88.6,70.9,29.72,SSW,195,2.0,3.0,56,0.00,,,0.00,396.00,VWS V14.01,2013-06-27 18:12:00,
2013-06-27 14:17:00,88.4,70.2,29.71,WSW,257,4.0,10.0,55,0.00,,,0.00,457.00,VWS V14.01,2013-06-27 18:17:00,
2013-06-27 14:22:00,88.6,70.4,29.71,South,180,5.0,7.0,55,0.00,,,0.00,1048.00,VWS V14.01,2013-06-27 18:22:00,
2013-06-27 14:27:00,89.0,70.2,29.71,WNW,287,11.0,11.0,54,0.00,,,0.00,953.00,VWS V14.01,2013-06-27 18:27:00,
2013-06-27 14:32:00,89.5,71.2,29.70,South,187,7.0,7.0,55,0.00,,,0.00,937.00,VWS V14.01,2013-06-27 18:32:00,
2013-06-27 14:37:00,89.9,71.0,29.70,NNW,329,0.0,1.0,54,0.00,,,0.00,896.00,VWS V14.01,2013-06-27 18:37:00,
2013-06-27 14:42:00,90.3,71.4,29.70,West,262,0.0,5.0,54,0.00,,,0.00,888.00,VWS V14.01,2013-06-27 18:42:00,
2013-06-27 14:47:00,90.5,70.5,29.69,WSW,251,0.0,0.0,52,0.00,,,0.00,902.00,VWS V14.01,2013-06-27 18:47:00,
2013-06-27 14:52:00,91.0,70.4,29.69,SSW,207,9.0,9.0,51,0.00,,,0.00,877.00,VWS V14.01,2013-06-27 18:52:00,
2013-06-27 14:57:00,91.2,72.2,29.69,WNW,286,6.0,7.0,54,0.00,,,0.00,879.00,VWS V14.01,2013-06-27 18:57:00,
2013-06-27 15:02:00,91.4,70.2,29.68,SW,234,3.0,8.0,50,0.00,,,0.00,932.00,VWS V14.01,2013-06-27 19:02:00,
2013-06-27 15:07:00,91.2,70.6,29.68,SW,235,6.0,7.0,51,0.00,,,0.00,925.00,VWS V14.01,2013-06-27 19:07:00,
2013-06-27 15:12:00,91.0,70.4,29.68,WNW,290,11.0,11.0,51,0.00,,,0.00,891.00,VWS V14.01,2013-06-27 19:12:00,
2013-06-27 15:17:00,91.0,70.4,29.67,SW,229,5.0,9.0,51,0.00,,,0.00,946.00,VWS V14.01,2013-06-27 19:17:00,
2013-06-27 15:22:00,91.0,70.4,29.67,West,274,8.0,10.0,51,0.00,,,0.00,863.00,VWS V14.01,2013-06-27 19:22:00,
2013-06-27 15:27:00,91.0,70.4,29.67,SW,236,5.0,10.0,51,0.00,,,0.00,299.00,VWS V14.01,2013-06-27 19:27:00,
2013-06-27 15:32:00,91.0,70.4,29.67,SSW,203,3.0,8.0,51,0.00,,,0.00,483.00,VWS V14.01,2013-06-27 19:32:00,
2013-06-27 15:37:00,91.0,71.5,29.67,SSW,212,7.0,10.0,53,0.00,,,0.00,550.00,VWS V14.01,2013-06-27 19:37:00,
2013-06-27 15:42:00,91.0,70.9,29.67,WSW,258,5.0,6.0,52,0.00,,,0.00,680.00,VWS V14.01,2013-06-27 19:42:00,
2013-06-27 15:47:00,91.6,70.9,29.66,SSW,200,5.0,7.0,51,0.00,,,0.00,814.00,VWS V14.01,2013-06-27 19:47:00,
2013-06-27 15:52:00,91.8,71.1,29.66,West,270,1.0,3.0,51,0.00,,,0.00,705.00,VWS V14.01,2013-06-27 19:52:00,
2013-06-27 15:57:00,91.8,71.7,29.66,West,278,1.0,5.0,52,0.00,,,0.00,302.00,VWS V14.01,2013-06-27 19:57:00,
2013-06-27 16:02:00,91.4,71.9,29.65,WNW,293,0.0,6.0,53,0.00,,,0.00,817.00,VWS V14.01,2013-06-27 20:02:00,
2013-06-27 16:07:00,91.2,71.1,29.65,SSW,200,10.0,13.0,52,0.00,,,0.00,225.00,VWS V14.01,2013-06-27 20:07:00,
2013-06-27 16:12:00,90.5,70.5,29.65,SSW,205,4.0,13.0,52,0.00,,,0.00,257.00,VWS V14.01,2013-06-27 20:12:00,
2013-06-27 16:17:00,89.7,69.8,29.65,SSW,205,0.0,3.0,52,0.00,,,0.00,258.00,VWS V14.01,2013-06-27 20:17:00,
2013-06-27 16:22:00,89.3,69.9,29.65,West,281,4.0,5.0,53,0.00,,,0.00,322.00,VWS V14.01,2013-06-27 20:22:00,
2013-06-27 16:27:00,89.0,69.7,29.65,SW,218,4.0,10.0,53,0.00,,,0.00,686.00,VWS V14.01,2013-06-27 20:27:00,
2013-06-27 16:32:00,89.0,69.1,29.64,SSW,208,0.0,11.0,52,0.00,,,0.00,671.00,VWS V14.01,2013-06-27 20:32:00,
2013-06-27 16:37:00,89.3,71.0,29.64,South,181,6.0,11.0,55,0.00,,,0.00,670.00,VWS V14.01,2013-06-27 20:37:00,
2013-06-27 16:42:00,89.5,70.1,29.64,West,281,3.0,4.0,53,0.00,,,0.00,118.00,VWS V14.01,2013-06-27 20:42:00,
2013-06-27 16:47:00,89.0,70.8,29.64,SSW,203,5.0,5.0,55,0.00,,,0.00,155.00,VWS V14.01,2013-06-27 20:47:00,
2013-06-27 16:52:00,88.4,70.7,29.64,SSW,207,1.0,5.0,56,0.00,,,0.00,234.00,VWS V14.01,2013-06-27 20:52:00,
2013-06-27 16:57:00,88.2,71.6,29.64,SSW,207,0.0,0.0,58,0.00,,,0.00,339.00,VWS V14.01,2013-06-27 20:57:00,
2013-06-27 17:02:00,88.0,71.9,29.64,SSW,200,5.0,7.0,59,0.00,,,0.00,582.00,VWS V14.01,2013-06-27 21:02:00,
2013-06-27 17:07:00,88.6,72.4,29.64,SW,215,4.0,6.0,59,0.00,,,0.00,679.00,VWS V14.01,2013-06-27 21:07:00,
2013-06-27 17:12:00,89.0,72.8,29.64,SW,224,0.0,6.0,59,0.00,,,0.00,635.00,VWS V14.01,2013-06-27 21:12:00,
2013-06-27 17:17:00,89.5,72.8,29.64,SW,214,0.0,0.0,58,0.00,,,0.00,577.00,VWS V14.01,2013-06-27 21:17:00,
2013-06-27 17:22:00,89.9,72.1,29.64,West,259,10.0,10.0,56,0.00,,,0.00,555.00,VWS V14.01,2013-06-27 21:22:00,
2013-06-27 17:28:00,90.1,72.8,29.64,West,264,1.0,5.0,57,0.00,,,0.00,513.00,VWS V14.01,2013-06-27 21:28:00,
2013-06-27 17:33:00,90.3,73.0,29.64,SSW,212,6.0,7.0,57,0.00,,,0.00,475.00,VWS V14.01,2013-06-27 21:33:00,
2013-06-27 17:38:00,90.5,72.1,29.64,SSW,196,5.0,8.0,55,0.00,,,0.00,536.00,VWS V14.01,2013-06-27 21:38:00,
2013-06-27 17:43:00,90.5,72.1,29.64,South,188,1.0,4.0,55,0.00,,,0.00,506.00,VWS V14.01,2013-06-27 21:43:00,
2013-06-27 17:48:00,91.0,73.1,29.64,SSE,151,1.0,1.0,56,0.00,,,0.00,461.00,VWS V14.01,2013-06-27 21:48:00,
2013-06-27 17:54:00,91.0,73.1,29.64,SSW,192,0.0,0.0,56,0.00,,,0.00,185.00,VWS V14.01,2013-06-27 21:54:00,
2013-06-27 17:59:00,90.5,74.2,29.64,SSE,158,4.0,6.0,59,0.00,,,0.00,134.00,VWS V14.01,2013-06-27 21:59:00,
2013-06-27 18:04:00,89.0,72.3,29.64,South,186,5.0,7.0,58,0.00,,,0.00,121.00,VWS V14.01,2013-06-27 22:04:00,
2013-06-27 18:09:00,87.6,71.5,29.64,South,186,12.0,12.0,59,0.00,,,0.00,132.00,VWS V14.01,2013-06-27 22:09:00,
2013-06-27 18:14:00,86.3,71.8,29.64,SSE,166,3.0,3.0,62,0.00,,,0.00,178.00,VWS V14.01,2013-06-27 22:14:00,
2013-06-27 18:19:00,85.9,72.3,29.64,SSW,196,10.0,10.0,64,0.00,,,0.00,476.00,VWS V14.01,2013-06-27 22:19:00,
2013-06-27 18:24:00,85.7,72.1,29.64,South,187,0.0,1.0,64,0.00,,,0.00,128.00,VWS V14.01,2013-06-27 22:24:00,
2013-06-27 18:29:00,85.7,71.7,29.64,SSW,204,0.0,4.0,63,0.00,,,0.00,132.00,VWS V14.01,2013-06-27 22:29:00,
2013-06-27 18:34:00,85.7,72.1,29.63,South,191,7.0,10.0,64,0.00,,,0.00,125.00,VWS V14.01,2013-06-27 22:34:00,
2013-06-27 18:39:00,85.3,71.3,29.63,SW,217,3.0,9.0,63,0.00,,,0.00,98.00,VWS V14.01,2013-06-27 22:39:00,
2013-06-27 18:44:00,85.1,70.6,29.63,SSW,196,0.0,2.0,62,0.00,,,0.00,77.00,VWS V14.01,2013-06-27 22:44:00,
2013-06-27 18:49:00,84.9,70.9,29.63,SW,231,2.0,4.0,63,0.00,,,0.00,98.00,VWS V14.01,2013-06-27 22:49:00,
2013-06-27 18:54:00,84.9,70.9,29.63,SW,228,0.0,8.0,63,0.00,,,0.00,109.00,VWS V14.01,2013-06-27 22:54:00,
2013-06-27 18:59:00,85.1,71.6,29.63,WSW,239,4.0,9.0,64,0.00,,,0.00,86.00,VWS V14.01,2013-06-27 22:59:00,
2013-06-27 19:04:00,84.9,71.4,29.64,SSW,195,7.0,7.0,64,0.00,,,0.00,88.00,VWS V14.01,2013-06-27 23:04:00,
2013-06-27 19:09:00,84.9,71.8,29.64,SSW,195,6.0,6.0,65,0.00,,,0.00,77.00,VWS V14.01,2013-06-27 23:09:00,
2013-06-27 19:14:00,84.5,71.0,29.64,SW,232,5.0,9.0,64,0.00,,,0.00,65.00,VWS V14.01,2013-06-27 23:14:00,
2013-06-27 19:19:00,84.3,70.8,29.64,SSW,199,2.0,4.0,64,0.00,,,0.00,63.00,VWS V14.01,2013-06-27 23:19:00,
2013-06-27 19:24:00,84.0,71.0,29.64,SSW,211,3.0,8.0,65,0.00,,,0.00,56.00,VWS V14.01,2013-06-27 23:24:00,
2013-06-27 19:30:00,83.8,71.2,29.66,SSW,192,2.0,4.0,66,0.00,,,0.00,46.00,VWS V14.01,2013-06-27 23:30:00,
2013-06-27 19:35:00,83.4,71.3,29.66,SSW,204,5.0,8.0,67,0.00,,,0.00,42.00,VWS V14.01,2013-06-27 23:35:00,
2013-06-27 19:40:00,83.2,71.1,29.66,South,183,5.0,5.0,67,0.00,,,0.00,32.00,VWS V14.01,2013-06-27 23:40:00,
2013-06-27 19:45:00,82.8,71.2,29.66,South,187,5.0,5.0,68,0.00,,,0.00,30.00,VWS V14.01,2013-06-27 23:45:00,
2013-06-27 19:50:00,82.4,71.2,29.66,SW,223,0.0,3.0,69,0.00,,,0.00,32.00,VWS V14.01,2013-06-27 23:50:00,
2013-06-27 19:55:00,82.2,71.0,29.66,WSW,256,9.0,9.0,69,0.00,,,0.00,35.00,VWS V14.01,2013-06-27 23:55:00,
2013-06-27 20:00:00,82.0,70.8,29.66,South,186,3.0,3.0,69,0.00,,,0.00,30.00,VWS V14.01,2013-06-28 00:00:00,
2013-06-27 20:05:00,81.8,70.6,29.66,WSW,238,3.0,4.0,69,0.00,,,0.00,21.00,VWS V14.01,2013-06-28 00:05:00,
2013-06-27 20:10:00,81.6,70.4,29.66,SW,233,5.0,5.0,69,0.00,,,0.00,19.00,VWS V14.01,2013-06-28 00:10:00,
2013-06-27 20:16:00,81.4,70.7,29.65,SSW,207,7.0,7.0,70,0.00,,,0.00,19.00,VWS V14.01,2013-06-28 00:16:00,
2013-06-27 20:21:00,81.2,70.5,29.65,SW,217,3.0,6.0,70,0.00,,,0.00,16.00,VWS V14.01,2013-06-28 00:21:00,
2013-06-27 20:26:00,81.2,70.9,29.65,WSW,252,2.0,10.0,71,0.00,,,0.00,9.00,VWS V14.01,2013-06-28 00:26:00,
2013-06-27 20:31:00,81.1,70.8,29.65,SSW,193,3.0,7.0,71,0.00,,,0.00,5.00,VWS V14.01,2013-06-28 00:31:00,
2013-06-27 20:36:00,81.1,71.2,29.65,SSE,165,2.0,5.0,72,0.00,,,0.00,0.00,VWS V14.01,2013-06-28 00:36:00,
2013-06-27 20:42:00,81.1,71.2,29.65,SSW,198,0.0,0.0,72,0.00,,,0.00,0.00,VWS V14.01,2013-06-28 00:42:00,
2013-06-27 20:47:00,80.9,71.4,29.66,South,188,6.0,6.0,73,0.00,,,0.00,0.00,VWS V14.01,2013-06-28 00:47:00,
2013-06-27 20:52:00,80.5,71.1,29.66,South,189,4.0,5.0,73,0.00,,,0.00,0.00,VWS V14.01,2013-06-28 00:52:00,
2013-06-27 20:57:00,80.3,71.3,29.66,SSW,201,6.0,7.0,74,0.00,,,0.00,0.00,VWS V14.01,2013-06-28 00:57:00,
2013-06-27 21:02:00,80.1,71.5,29.66,South,175,3.0,3.0,75,0.00,,,0.00,0.00,VWS V14.01,2013-06-28 01:02:00,
2013-06-27 21:07:00,79.8,71.6,29.66,South,185,8.0,8.0,76,0.00,,,0.00,0.00,VWS V14.01,2013-06-28 01:07:00,
2013-06-27 21:12:00,79.4,71.9,29.66,SSW,205,6.0,6.0,78,0.00,,,0.00,0.00,VWS V14.01,2013-06-28 01:12:00,
2013-06-27 21:17:00,79.2,72.1,29.66,SSW,204,6.0,7.0,79,0.00,,,0.00,0.00,VWS V14.01,2013-06-28 01:17:00,
2013-06-27 21:22:00,79.0,71.9,29.66,SSW,193,4.0,7.0,79,0.00,,,0.00,0.00,VWS V14.01,2013-06-28 01:22:00,
2013-06-27 21:27:00,79.0,72.3,29.66,SSW,200,1.0,5.0,80,0.00,,,0.00,0.00,VWS V14.01,2013-06-28 01:27:00,
2013-06-27 21:32:00,78.8,72.1,29.66,South,179,5.0,5.0,80,0.00,,,0.00,0.00,VWS V14.01,2013-06-28 01:32:00,
2013-06-27 21:37:00,78.8,72.1,29.66,SSW,198,6.0,10.0,80,0.00,,,0.00,0.00,VWS V14.01,2013-06-28 01:37:00,
2013-06-27 21:42:00,78.8,72.5,29.66,SSW,200,2.0,4.0,81,0.00,,,0.00,0.00,VWS V14.01,2013-06-28 01:42:00,
2013-06-27 21:47:00,78.6,72.3,29.67,SSW,209,0.0,4.0,81,0.00,,,0.00,0.00,VWS V14.01,2013-06-28 01:47:00,
2013-06-27 21:52:00,78.6,72.3,29.67,South,176,5.0,6.0,81,0.00,,,0.00,0.00,VWS V14.01,2013-06-28 01:52:00,
2013-06-27 21:57:00,78.6,72.7,29.67,South,178,8.0,10.0,82,0.00,,,0.00,0.00,VWS V14.01,2013-06-28 01:57:00,
2013-06-27 22:02:00,78.6,72.7,29.67,SW,219,4.0,4.0,82,0.00,,,0.00,0.00,VWS V14.01,2013-06-28 02:02:00,
2013-06-27 22:07:00,78.6,72.7,29.67,SSW,205,0.0,5.0,82,0.00,,,0.00,0.00,VWS V14.01,2013-06-28 02:07:00,
2013-06-27 22:12:00,78.5,72.6,29.67,South,176,0.0,1.0,82,0.00,,,0.00,0.00,VWS V14.01,2013-06-28 02:12:00,
2013-06-27 22:17:00,78.5,72.6,29.67,WSW,242,0.0,4.0,82,0.00,,,0.00,0.00,VWS V14.01,2013-06-28 02:17:00,
2013-06-27 22:22:00,78.5,72.9,29.67,SW,233,0.0,2.0,83,0.00,,,0.00,0.00,VWS V14.01,2013-06-28 02:22:00,
2013-06-27 22:27:00,78.3,72.7,29.67,SSW,194,0.0,6.0,83,0.00,,,0.00,0.00,VWS V14.01,2013-06-28 02:27:00,
2013-06-27 22:32:00,78.3,72.7,29.66,WSW,243,0.0,3.0,83,0.00,,,0.00,0.00,VWS V14.01,2013-06-28 02:32:00,
2013-06-27 22:37:00,78.3,72.7,29.66,South,179,0.0,0.0,83,0.00,,,0.00,0.00,VWS V14.01,2013-06-28 02:37:00,
2013-06-27 22:42:00,78.3,72.7,29.66,West,278,9.0,9.0,83,0.00,,,0.00,0.00,VWS V14.01,2013-06-28 02:42:00,
2013-06-27 22:47:00,78.1,72.5,29.66,SSW,209,1.0,6.0,83,0.00,,,0.00,0.00,VWS V14.01,2013-06-28 02:47:00,
2013-06-27 22:52:00,78.1,72.5,29.66,SSW,207,3.0,4.0,83,0.00,,,0.00,0.00,VWS V14.01,2013-06-28 02:52:00,
2013-06-27 22:57:00,78.1,72.2,29.66,West,274,3.0,6.0,82,0.00,,,0.00,0.00,VWS V14.01,2013-06-28 02:57:00,
2013-06-27 23:02:00,78.1,72.2,29.66,West,261,0.0,3.0,82,0.00,,,0.00,0.00,VWS V14.01,2013-06-28 03:02:00,
2013-06-27 23:07:00,78.1,72.2,29.66,West,266,5.0,7.0,82,0.00,,,0.00,0.00,VWS V14.01,2013-06-28 03:07:00,
2013-06-27 23:12:00,78.1,72.2,29.66,SW,215,0.0,0.0,82,0.00,,,0.00,0.00,VWS V14.01,2013-06-28 03:12:00,
2013-06-27 23:17:00,78.1,72.2,29.67,West,268,1.0,4.0,82,0.00,,,0.00,0.00,VWS V14.01,2013-06-28 03:17:00,
2013-06-27 23:22:00,78.1,72.2,29.67,SW,226,1.0,1.0,82,0.00,,,0.00,0.00,VWS V14.01,2013-06-28 03:22:00,
2013-06-27 23:27:00,78.1,72.2,29.67,SW,226,0.0,0.0,82,0.00,,,0.00,0.00,VWS V14.01,2013-06-28 03:27:00,
2013-06-27 23:33:00,78.1,72.2,29.67,SW,215,3.0,4.0,82,0.00,,,0.00,0.00,VWS V14.01,2013-06-28 03:33:00,
2013-06-27 23:38:00,78.1,71.8,29.67,SW,215,0.0,3.0,81,0.00,,,0.00,0.00,VWS V14.01,2013-06-28 03:38:00,
2013-06-27 23:43:00,78.1,71.8,29.67,SW,218,0.0,0.0,81,0.00,,,0.00,0.00,VWS V14.01,2013-06-28 03:43:00,
2013-06-27 23:48:00,78.1,71.8,29.67,SW,229,4.0,10.0,81,0.00,,,0.00,0.00,VWS V14.01,2013-06-28 03:48:00,
2013-06-27 23:53:00,77.9,71.6,29.67,West,268,4.0,6.0,81,0.00,,,0.00,0.00,VWS V14.01,2013-06-28 03:53:00,
2013-06-27 23:58:00,77.9,71.6,29.67,SSW,198,3.0,5.0,81,0.00,,,0.00,0.00,VWS V14.01,2013-06-28 03:58:00,